Location: Kalberh�ni
(46.4610°N, 7.2453°E)
Time: 09:52:04
(UTC+00:00)

Lacrosse 4 Rocket - Pass Details

Date: 25 October 2021
Orbit: 538 x 619 km, 68.0° (Epoch: 28 November)

Event Time Altitude Azimuth Distance (km) Brightness Sun altitude
Rises 19:10:44 0° 309° (NW) 2,830 5.9 -28.7°
Reaches altitude 10° 19:14:21 10° 277° (W) 1,942 5.0 -29.3°
Maximum altitude 19:15:55 12° 256° (WSW) 1,832 4.7 -29.6°
Drops below altitude 10° 19:17:29 10° 235° (SW) 1,951 4.6 -29.9°
Enters shadow 19:21:03 - 204° (SSW) 2,827 5.1 -30.5°
